152941 (2000 FM10) |
Classification: Apollo [NEO] SPK-ID: 2152941 |
[ hide orbit diagram ]
For accurate long-term ephemerides, please instead use our Horizons system.This orbit viewer was implemented using two-body methods, and hence should not be used for determining accurate long-term trajectories (over several years or decades) or planetary encounter circumstances.
Orbital Elements at Epoch 2459200.5 (2020-Dec-17.0) TDB
Reference: JPL 135 (heliocentric ecliptic J2000)
Element | Value | Uncertainty (1-sigma) | Units |
e | .6807527792842137 | 4.4498e-08 | |
a | 1.481083791538287 | 4.9386e-09 | au |
q | .4728318840957972 | 6.5331e-08 | au |
i | 8.734114129941705 | 5.5975e-06 | deg |
node | 18.54447800146592 | 2.3418e-05 | deg |
peri | 343.9413602915889 | 2.4124e-05 | deg |
M | 36.35643176404541 | 1.5129e-05 | deg |
tp | 2459134.011486672567 (2020-Oct-11.51148667) | 2.7396e-05 | TDB |
period | 658.3667218284901 1.80 | 3.293e-06 9.016e-09 | d yr |
n | .5468077107545284 | 2.735e-09 | deg/d |
Q | 2.489335698980777 | 8.3006e-09 | au |
|
| | Orbit Determination Parameters
Additional Information
|
[ show covariance matrix ]
Physical Parameter Table
Parameter |
Symbol |
Value |
Units |
Sigma |
Reference |
Notes |
absolute magnitude |
H |
17.56 |
|
n/a |
E2021B55 |
|
diameter |
diameter |
0.820 |
km |
0.005 |
urn:nasa:pds:neowise_diameters_albedos::2.0[neos] (http://adsabs.harvard.edu/abs/2011ApJ...743..156M) |
|
geometric albedo |
albedo |
0.205 |
|
0.032 |
urn:nasa:pds:neowise_diameters_albedos::2.0[neos] (http://adsabs.harvard.edu/abs/2011ApJ...743..156M) |
|
|
152941 (2000 FM10) Discovered 2000-Mar-30 by Spacewatch at Kitt Peak |
Reference: 20070402/Numbers.arc | Last Updated: 2007-04-04 |
|
[ show close-approach data ]
|